CW3138 Weather Reports


time (UTC)temp
F
wind
direction
speed
knots
gust
knots
rain 1hr
in
rain 24hr
in
rain mn
in
humidity
%
barometer
mb
20260510174606 69 273 3.5 7.8 0.00 0.00 0.00 74 1009.8
20260510173104 68 290 2.6 7.8 0.00 0.00 0.00 77 1009.8
20260510171559 67 265 5.2 9.6 0.00 0.00 0.00 74 1009.9
20260510170059 66 257 2.6 7.8 0.00 0.00 0.00 76 1009.9
20260510164609 66 268 4.3 7.0 0.00 0.00 0.00 75 1009.8
20260510163055 67 243 4.3 7.8 0.00 0.00 0.00 74 1009.8
20260510161555 67 256 4.3 10.4 0.00 0.00 0.00 74 1009.7
20260510160054 66 249 5.2 7.0 0.00 0.00 0.00 74 1009.7
20260510154556 66 242 1.7 4.3 0.00 0.00 0.00 78 1009.6
20260510153052 66 266 0.9 6.1 0.00 0.00 0.00 76 1009.7
20260510151555 68 246 2.6 7.0 0.00 0.00 0.00 70 1009.4
20260510150119 68 163 0.0 4.3 0.00 0.00 0.00 70 1008.6
20260510144609 69 270 1.7 7.8 0.00 0.00 0.00 69 1009.1
20260510143053 69 257 5.2 9.6 0.00 0.00 0.00 70 1009.2
20260510141546 68 134 1.7 7.8 0.00 0.00 0.00 69 1009.1
20260510140045 67 253 1.7 7.0 0.00 0.00 0.00 73 1008.9
20260510134547 66 173 2.6 7.0 0.00 0.00 0.00 74 1009.0
20260510133044 65 71 0.9 5.2 0.00 0.00 0.00 76 1008.7
20260510131537 63 213 0.0 4.3 0.00 0.00 0.00 82 1008.7
20260510130030 60 241 0.0 0.0 0.00 0.00 0.00 92 1008.7
20260510124525 58 241 0.0 2.6 0.00 0.00 0.00 97 1008.7
20260510123022 55 79 0.0 1.7 0.00 0.00 0.00 100 1008.4
20260510121518 53 54 0.0 0.0 0.00 0.00 0.00 99 1008.5
20260510120017 51 17 0.0 0.0 0.00 0.00 0.00 99 1008.5
20260510114519 50 18 0.0 0.0 0.00 0.00 0.00 99 1008.4
20260510113013 49 183 0.0 0.0 0.00 0.00 0.00 99 1008.2
20260510111510 49 116 0.0 0.0 0.00 0.00 0.00 98 1007.7
20260510110006 48 116 0.0 0.0 0.00 0.00 0.00 98 1007.6
20260510104505 48 116 0.0 0.0 0.00 0.00 0.00 98 1007.5
20260510103004 48 116 0.0 0.9 0.00 0.00 0.00 98 1007.1
20260510101507 48 160 0.0 0.0 0.00 0.00 0.00 98 1007.1
20260510100003 48 161 0.0 0.0 0.00 0.00 0.00 98 1007.1
20260510094503 48 89 0.0 0.0 0.00 0.00 0.00 97 1006.6
20260510093104 48 89 0.0 0.0 0.00 0.00 0.00 97 1006.5
20260510091559 48 89 0.0 0.0 0.00 0.00 0.00 97 1006.4
20260510090057 49 89 0.0 0.0 0.00 0.00 0.00 97 1006.4
20260510084554 49 89 0.0 0.0 0.00 0.00 0.00 97 1006.2
20260510083053 49 89 0.0 0.0 0.00 0.00 0.00 98 1006.1
20260510081553 49 89 0.0 0.0 0.00 0.00 0.00 97 1006.1
20260510080056 50 89 0.0 0.0 0.00 0.00 0.00 97 1006.0
20260510074601 50 89 0.0 0.0 0.00 0.00 0.00 97 1006.0
20260510073049 50 89 0.0 1.7 0.00 0.00 0.00 97 1005.9
20260510071549 50 89 0.0 0.0 0.00 0.00 0.00 97 1006.0
20260510070104 50 89 0.0 0.0 0.00 0.00 0.00 97 1005.8
20260510064555 50 89 0.0 0.0 0.00 0.00 0.00 97 1005.8
20260510063045 50 89 0.0 0.0 0.00 0.00 0.00 96 1006.0
20260510061544 51 89 0.0 0.0 0.00 0.00 0.00 96 1006.0
20260510060043 51 89 0.0 0.0 0.00 0.00 0.00 95 1006.0
20260510054546 51 89 0.0 0.0 0.00 0.00 0.00 96 1006.0
20260510053038 52 89 0.0 0.0 0.00 0.00 0.00 95 1006.0
20260510051537 53 89 0.0 2.6 0.00 0.00 0.00 96 1006.1
20260510050036 52 88 0.0 0.0 0.00 0.00 0.00 96 1006.2
20260510044533 52 88 0.0 0.0 0.00 0.00 0.00 96 1006.3
20260510043032 52 88 0.0 0.0 0.00 0.00 0.00 95 1006.4
20260510041541 53 88 0.0 0.0 0.00 0.00 0.00 95 1006.4
20260510040028 53 88 0.0 4.3 0.00 0.00 0.00 95 1006.3
20260510034526 53 88 1.7 4.3 0.00 0.00 0.00 95 1006.4
20260510033025 53 122 0.0 0.0 0.00 0.00 0.00 93 1006.5
20260510031529 54 122 0.0 0.0 0.00 0.00 0.00 92 1006.4
20260510030024 54 122 0.0 0.0 0.00 0.00 0.00 92 1006.3
20260510024523 55 122 0.0 0.0 0.00 0.00 0.00 91 1006.0
20260510023022 56 122 0.0 0.0 0.00 0.00 0.00 90 1005.8
20260510021533 56 122 0.0 0.0 0.00 0.00 0.00 89 1005.7
20260510020028 57 122 0.0 0.0 0.00 0.00 0.00 87 1005.5
20260510014523 58 122 0.0 0.0 0.00 0.00 0.00 86 1005.4
20260510013020 59 122 0.0 0.0 0.00 0.00 0.00 84 1004.9
20260510011520 61 122 0.0 0.0 0.00 0.00 0.00 79 1004.8
20260510010019 62 117 0.9 2.6 0.00 0.00 0.00 78 1004.4
20260510004519 63 117 0.0 1.7 0.00 0.00 0.00 75 1004.4
20260510003017 65 117 0.0 0.9 0.00 0.00 0.00 72 1004.3
20260510001522 66 117 0.0 2.6 0.00 0.00 0.00 69 1003.9
20260510000016 67 126 0.0 4.3 0.00 0.00 0.00 67 1003.8
20260509234516 68 109 0.0 3.5 0.00 0.00 0.00 66 1003.8
20260509233015 69 96 0.0 6.1 0.00 0.00 0.00 63 1003.8
20260509231516 70 68 0.9 6.1 0.00 0.00 0.00 62 1003.7
20260509230015 71 117 1.7 6.1 0.00 0.00 0.00 61 1003.7
20260509224514 71 200 0.9 5.2 0.00 0.00 0.00 62 1003.6
20260509223014 71 131 0.0 4.3 0.00 0.00 0.00 60 1003.5
20260509221513 72 94 0.9 7.8 0.00 0.00 0.00 59 1003.6
20260509220014 72 127 2.6 7.0 0.00 0.00 0.00 59 1003.8
20260509214510 72 96 1.7 7.8 0.00 0.00 0.00 58 1003.8
20260509213008 71 142 3.5 7.8 0.00 0.00 0.00 60 1003.8
20260509211507 70 154 0.0 4.3 0.00 0.00 0.00 64 1003.8
20260509210007 71 174 2.6 8.7 0.00 0.00 0.00 60 1003.8
20260509204508 70 260 4.3 7.0 0.00 0.00 0.00 62 1003.8
20260509203007 70 255 2.6 9.6 0.00 0.00 0.00 61 1003.9
20260509201502 70 126 1.7 10.4 0.00 0.00 0.00 63 1003.9
20260509200100 69 78 0.0 3.5 0.00 0.00 0.00 67 1003.9
20260509194600 69 132 0.9 8.7 0.00 0.00 0.00 66 1004.3
20260509193059 69 59 4.3 11.3 0.00 0.00 0.00 65 1004.3
20260509191606 69 139 1.7 7.0 0.00 0.00 0.00 64 1004.3
20260509190058 68 103 3.5 7.8 0.00 0.00 0.00 65 1004.3
20260509184552 68 74 3.5 14.8 0.00 0.00 0.00 67 1004.3
20260509183051 68 64 5.2 13.0 0.00 0.00 0.00 65 1004.1
20260509181557 67 72 3.5 14.8 0.00 0.00 0.00 68 1003.9
20260509180046 67 94 3.5 12.2 0.00 0.00 0.00 67 1004.2